Time,TemperatureF,DewpointF,PressureIn,WindDirection,WindDirectionDegrees,WindSpeedMPH,WindSpeedGustMPH,Humidity,HourlyPrecipIn,Conditions,Clouds,dailyrainin,SoftwareType,DateUTC
2014-08-22 00:01:00,72.0,56.9,29.85,North,357,0.0,0.0,59,0.00,,---,0.00,VWS V15.00,2014-08-22 04:01:00,
2014-08-22 00:02:00,72.0,56.9,29.85,North,357,0.0,0.0,59,0.00,,---,0.00,VWS V15.00,2014-08-22 04:02:00,
2014-08-22 00:07:00,72.0,56.9,29.85,North,357,0.0,0.0,59,0.00,,---,0.00,VWS V15.00,2014-08-22 04:07:00,
2014-08-22 00:12:00,72.0,57.3,29.85,North,357,0.0,0.0,60,0.00,,---,0.00,VWS V15.00,2014-08-22 04:12:00,
2014-08-22 00:17:00,72.0,57.3,29.85,North,357,0.0,0.0,60,0.00,,---,0.00,VWS V15.00,2014-08-22 04:17:00,
2014-08-22 00:22:00,71.8,58.1,29.85,North,357,0.0,0.0,62,0.00,,---,0.00,VWS V15.00,2014-08-22 04:22:00,
2014-08-22 00:27:00,71.8,58.5,29.85,North,357,0.0,0.0,63,0.00,,---,0.00,VWS V15.00,2014-08-22 04:27:00,
2014-08-22 00:32:00,72.0,58.7,29.85,North,357,0.0,0.0,63,0.00,,---,0.00,VWS V15.00,2014-08-22 04:32:00,
2014-08-22 00:37:00,72.1,59.3,29.85,North,357,0.0,0.0,64,0.00,,---,0.00,VWS V15.00,2014-08-22 04:37:00,
2014-08-22 00:42:00,72.3,59.5,29.85,North,357,0.0,0.0,64,0.00,,---,0.00,VWS V15.00,2014-08-22 04:42:00,
2014-08-22 00:47:00,72.5,59.6,29.85,North,357,0.0,0.0,64,0.00,,---,0.00,VWS V15.00,2014-08-22 04:47:00,
2014-08-22 00:52:00,72.5,59.6,29.85,North,357,0.0,0.0,64,0.00,,---,0.00,VWS V15.00,2014-08-22 04:52:00,
2014-08-22 00:57:00,72.7,59.8,29.85,North,357,0.0,0.0,64,0.00,,---,0.00,VWS V15.00,2014-08-22 04:57:00,
2014-08-22 01:02:00,72.7,59.8,29.83,North,357,0.0,0.0,64,0.00,,---,0.00,VWS V15.00,2014-08-22 05:02:00,
2014-08-22 01:07:00,72.7,59.8,29.83,North,357,0.0,0.0,64,0.00,,---,0.00,VWS V15.00,2014-08-22 05:07:00,
2014-08-22 01:12:00,72.7,59.8,29.83,North,357,0.0,0.0,64,0.00,,---,0.00,VWS V15.00,2014-08-22 05:12:00,
2014-08-22 01:17:00,72.7,59.8,29.83,North,357,0.0,0.0,64,0.00,,---,0.00,VWS V15.00,2014-08-22 05:17:00,
2014-08-22 01:22:00,72.7,59.8,29.83,North,357,0.0,0.0,64,0.00,,---,0.00,VWS V15.00,2014-08-22 05:22:00,
2014-08-22 01:27:00,72.9,60.0,29.83,North,357,0.0,0.0,64,0.00,,---,0.00,VWS V15.00,2014-08-22 05:27:00,
2014-08-22 01:32:00,72.9,60.0,29.83,North,357,0.0,0.0,64,0.00,,---,0.00,VWS V15.00,2014-08-22 05:32:00,
2014-08-22 01:37:00,72.9,60.0,29.83,North,357,0.0,0.0,64,0.00,,---,0.00,VWS V15.00,2014-08-22 05:37:00,
2014-08-22 01:42:00,72.9,60.0,29.83,North,357,0.0,0.0,64,0.00,,---,0.00,VWS V15.00,2014-08-22 05:42:00,
2014-08-22 01:47:00,72.9,60.0,29.83,North,357,0.0,0.0,64,0.00,,---,0.00,VWS V15.00,2014-08-22 05:47:00,
2014-08-22 01:52:00,72.9,60.0,29.83,North,357,0.0,0.0,64,0.00,,---,0.00,VWS V15.00,2014-08-22 05:52:00,
2014-08-22 01:57:00,72.7,59.8,29.83,North,357,0.0,0.0,64,0.00,,---,0.00,VWS V15.00,2014-08-22 05:57:00,
2014-08-22 02:02:00,72.7,59.8,29.83,North,357,0.0,0.0,64,0.00,,---,0.00,VWS V15.00,2014-08-22 06:02:00,
2014-08-22 02:07:00,72.5,59.6,29.83,North,357,0.0,0.0,64,0.00,,---,0.00,VWS V15.00,2014-08-22 06:07:00,
2014-08-22 02:12:00,72.7,59.8,29.83,North,357,0.0,0.0,64,0.00,,---,0.00,VWS V15.00,2014-08-22 06:12:00,
2014-08-22 02:17:00,72.7,59.8,29.83,North,357,0.0,0.0,64,0.00,,---,0.00,VWS V15.00,2014-08-22 06:17:00,
2014-08-22 02:22:00,72.7,59.8,29.83,North,357,0.0,0.0,64,0.00,,---,0.00,VWS V15.00,2014-08-22 06:22:00,
2014-08-22 02:27:00,72.5,60.1,29.83,North,357,0.0,0.0,65,0.00,,---,0.00,VWS V15.00,2014-08-22 06:27:00,
2014-08-22 02:32:00,72.5,60.1,29.83,North,357,0.0,0.0,65,0.00,,---,0.00,VWS V15.00,2014-08-22 06:32:00,
2014-08-22 02:37:00,72.3,59.9,29.83,North,357,0.0,0.0,65,0.00,,---,0.00,VWS V15.00,2014-08-22 06:37:00,
2014-08-22 02:42:00,72.3,60.3,29.83,North,357,0.0,0.0,66,0.00,,---,0.00,VWS V15.00,2014-08-22 06:42:00,
2014-08-22 02:47:00,72.3,60.3,29.80,North,357,0.0,0.0,66,0.00,,---,0.00,VWS V15.00,2014-08-22 06:47:00,
2014-08-22 02:52:00,72.3,60.8,29.80,North,357,0.0,0.0,67,0.00,,---,0.00,VWS V15.00,2014-08-22 06:52:00,
2014-08-22 02:57:00,72.3,62.8,29.80,North,357,0.0,0.0,72,0.00,,---,0.00,VWS V15.00,2014-08-22 06:57:00,
2014-08-22 03:02:00,72.3,64.3,29.80,North,357,0.0,0.0,76,0.00,,---,0.00,VWS V15.00,2014-08-22 07:02:00,
2014-08-22 03:07:00,72.1,63.4,29.80,North,357,0.0,0.0,74,0.00,,---,0.00,VWS V15.00,2014-08-22 07:07:00,
2014-08-22 03:12:00,72.1,64.2,29.80,North,357,0.0,0.0,76,0.00,,---,0.00,VWS V15.00,2014-08-22 07:12:00,
2014-08-22 03:17:00,72.1,64.5,29.83,North,357,0.0,0.0,77,0.00,,---,0.00,VWS V15.00,2014-08-22 07:17:00,
2014-08-22 03:22:00,72.1,64.9,29.83,North,357,0.0,0.0,78,0.00,,---,0.00,VWS V15.00,2014-08-22 07:22:00,
2014-08-22 03:27:00,72.1,65.6,29.83,North,357,0.0,0.0,80,0.00,,---,0.00,VWS V15.00,2014-08-22 07:27:00,
2014-08-22 03:32:00,72.3,69.6,29.83,North,357,0.0,0.0,91,0.00,,---,0.00,VWS V15.00,2014-08-22 07:32:00,
2014-08-22 03:37:00,72.7,71.5,29.83,North,357,0.0,0.0,96,0.00,,---,0.00,VWS V15.00,2014-08-22 07:37:00,
2014-08-22 03:42:00,72.9,72.0,29.83,North,357,0.0,0.0,97,0.00,,---,0.00,VWS V15.00,2014-08-22 07:42:00,
2014-08-22 03:48:00,72.5,69.4,29.83,North,357,0.0,0.0,90,0.00,,---,0.00,VWS V15.00,2014-08-22 07:48:00,
2014-08-22 03:53:00,72.3,60.8,29.83,North,357,0.0,0.0,67,0.00,,---,0.00,VWS V15.00,2014-08-22 07:53:00,
2014-08-22 03:58:00,72.1,58.4,29.83,North,0,0.0,0.0,62,0.00,,---,0.00,VWS V15.00,2014-08-22 07:58:00,
2014-08-22 04:03:00,72.1,57.5,29.83,North,0,0.0,0.0,60,0.00,,---,0.00,VWS V15.00,2014-08-22 08:03:00,
2014-08-22 04:08:00,71.8,56.2,29.83,North,0,0.0,0.0,58,0.00,,---,0.00,VWS V15.00,2014-08-22 08:08:00,
2014-08-22 04:13:00,71.8,55.8,29.83,North,0,0.0,0.0,57,0.00,,---,0.00,VWS V15.00,2014-08-22 08:13:00,
2014-08-22 04:18:00,71.6,56.1,29.83,North,0,0.0,0.0,58,0.00,,---,0.00,VWS V15.00,2014-08-22 08:18:00,
2014-08-22 04:23:00,71.6,56.1,29.83,North,0,0.0,0.0,58,0.00,,---,0.00,VWS V15.00,2014-08-22 08:23:00,
2014-08-22 04:28:00,71.6,56.5,29.83,North,353,0.0,0.0,59,0.00,,---,0.00,VWS V15.00,2014-08-22 08:28:00,
2014-08-22 04:33:00,71.4,56.4,29.83,North,353,0.0,0.0,59,0.00,,---,0.00,VWS V15.00,2014-08-22 08:33:00,
2014-08-22 04:38:00,71.4,56.4,29.83,North,353,0.0,0.0,59,0.00,,---,0.00,VWS V15.00,2014-08-22 08:38:00,
2014-08-22 04:43:00,71.4,56.8,29.83,North,353,0.0,0.0,60,0.00,,---,0.00,VWS V15.00,2014-08-22 08:43:00,
2014-08-22 04:48:00,71.2,57.6,29.83,North,353,0.0,0.0,62,0.00,,---,0.00,VWS V15.00,2014-08-22 08:48:00,
2014-08-22 04:53:00,71.1,57.8,29.83,North,353,0.0,0.0,63,0.00,,---,0.00,VWS V15.00,2014-08-22 08:53:00,
2014-08-22 04:58:00,70.9,57.7,29.83,North,353,0.0,0.0,63,0.00,,---,0.00,VWS V15.00,2014-08-22 08:58:00,
2014-08-22 05:03:00,70.9,58.5,29.83,North,0,0.0,0.0,65,0.00,,---,0.00,VWS V15.00,2014-08-22 09:03:00,
2014-08-22 05:08:00,70.9,60.2,29.83,North,0,0.0,0.0,69,0.00,,---,0.00,VWS V15.00,2014-08-22 09:08:00,
2014-08-22 05:13:00,70.9,61.4,29.83,North,0,0.0,0.0,72,0.00,,---,0.00,VWS V15.00,2014-08-22 09:13:00,
2014-08-22 05:18:00,70.7,62.4,29.83,North,0,0.0,0.0,75,0.00,,---,0.00,VWS V15.00,2014-08-22 09:18:00,
2014-08-22 05:23:00,70.7,63.5,29.83,North,0,0.0,0.0,78,0.00,,---,0.00,VWS V15.00,2014-08-22 09:23:00,
2014-08-22 05:28:00,70.7,64.6,29.83,North,0,0.0,0.0,81,0.00,,---,0.00,VWS V15.00,2014-08-22 09:28:00,
2014-08-22 05:33:00,70.7,64.6,29.83,North,0,0.0,0.0,81,0.00,,---,0.00,VWS V15.00,2014-08-22 09:33:00,
2014-08-22 05:38:00,70.7,64.6,29.83,North,0,0.0,0.0,81,0.00,,---,0.00,VWS V15.00,2014-08-22 09:38:00,
2014-08-22 05:43:00,70.7,64.2,29.83,North,0,0.0,0.0,80,0.00,,---,0.00,VWS V15.00,2014-08-22 09:43:00,
2014-08-22 05:48:00,70.7,64.2,29.83,NW,319,0.0,0.0,80,0.00,,---,0.00,VWS V15.00,2014-08-22 09:48:00,
2014-08-22 05:53:00,70.7,64.6,29.83,NW,317,0.0,0.0,81,0.00,,---,0.00,VWS V15.00,2014-08-22 09:53:00,
2014-08-22 05:58:00,70.7,65.3,29.83,NW,316,0.0,0.0,83,0.00,,---,0.00,VWS V15.00,2014-08-22 09:58:00,
2014-08-22 06:03:00,70.7,65.6,29.83,NW,316,0.0,0.0,84,0.04,,---,0.04,VWS V15.00,2014-08-22 10:03:00,
2014-08-22 06:08:00,70.7,66.0,29.83,NW,316,0.0,0.0,85,0.04,,---,0.04,VWS V15.00,2014-08-22 10:08:00,
2014-08-22 06:13:00,70.7,66.7,29.83,NW,316,0.0,0.0,87,0.04,,---,0.04,VWS V15.00,2014-08-22 10:13:00,
2014-08-22 06:18:00,70.7,67.3,29.83,NW,316,0.0,0.0,89,0.04,,---,0.04,VWS V15.00,2014-08-22 10:18:00,
2014-08-22 06:23:00,70.7,67.6,29.83,NW,316,0.0,0.0,90,0.04,,---,0.04,VWS V15.00,2014-08-22 10:23:00,
2014-08-22 06:28:00,70.7,67.9,29.83,NW,316,0.0,0.0,91,0.04,,---,0.04,VWS V15.00,2014-08-22 10:28:00,
2014-08-22 06:33:00,70.7,67.9,29.83,NW,316,0.0,0.0,91,0.04,,---,0.04,VWS V15.00,2014-08-22 10:33:00,
2014-08-22 06:38:00,70.7,67.9,29.83,NW,316,0.0,0.0,91,0.04,,---,0.00,VWS V15.00,2014-08-22 10:38:00,
2014-08-22 06:43:00,70.7,67.9,29.83,NW,316,0.0,0.0,91,0.04,,---,0.04,VWS V15.00,2014-08-22 10:43:00,
2014-08-22 06:48:00,70.7,68.6,29.83,NW,316,0.0,0.0,93,0.04,,---,0.04,VWS V15.00,2014-08-22 10:48:00,
2014-08-22 06:53:00,70.9,68.8,29.83,NW,316,0.0,0.0,93,0.04,,---,0.04,VWS V15.00,2014-08-22 10:53:00,
2014-08-22 06:58:00,70.9,69.1,29.83,NW,316,0.0,0.0,94,0.04,,---,0.04,VWS V15.00,2014-08-22 10:58:00,
2014-08-22 07:03:00,70.9,69.4,29.83,NW,316,0.0,0.0,95,0.00,,---,0.04,VWS V15.00,2014-08-22 11:03:00,
2014-08-22 07:08:00,71.1,69.6,29.83,NW,316,0.0,0.0,95,0.00,,---,0.00,VWS V15.00,2014-08-22 11:08:00,
2014-08-22 07:13:00,71.1,69.9,29.83,NW,316,0.0,0.0,96,0.00,,---,0.04,VWS V15.00,2014-08-22 11:13:00,
2014-08-22 07:18:00,71.2,70.3,29.83,NW,316,0.0,0.0,97,0.00,,---,0.04,VWS V15.00,2014-08-22 11:18:00,
2014-08-22 07:23:00,71.2,70.3,29.83,NW,316,0.0,0.0,97,0.00,,---,0.04,VWS V15.00,2014-08-22 11:23:00,
2014-08-22 07:28:00,71.4,70.5,29.83,NW,316,0.0,0.0,97,0.00,,---,0.04,VWS V15.00,2014-08-22 11:28:00,
2014-08-22 07:33:00,71.4,70.8,29.83,NW,316,0.0,0.0,98,0.00,,---,0.04,VWS V15.00,2014-08-22 11:33:00,
2014-08-22 07:38:00,71.6,70.7,29.83,NW,316,0.0,0.0,97,0.00,,---,0.04,VWS V15.00,2014-08-22 11:38:00,
2014-08-22 07:43:00,71.6,70.7,29.83,NW,316,0.0,0.0,97,0.00,,---,0.00,VWS V15.00,2014-08-22 11:43:00,
2014-08-22 07:48:00,71.8,71.2,29.83,NW,316,0.0,0.0,98,0.00,,---,0.04,VWS V15.00,2014-08-22 11:48:00,
2014-08-22 07:53:00,72.0,71.4,29.83,NW,316,0.0,0.0,98,0.00,,---,0.04,VWS V15.00,2014-08-22 11:53:00,
2014-08-22 07:58:00,72.1,71.8,29.83,NW,316,0.0,0.0,99,0.00,,---,0.04,VWS V15.00,2014-08-22 11:58:00,
2014-08-22 08:03:00,72.3,72.3,29.83,NW,316,0.0,0.0,100,0.00,,---,0.04,VWS V15.00,2014-08-22 12:03:00,
2014-08-22 08:09:00,72.5,72.5,29.83,NW,316,0.0,0.0,100,0.00,,---,0.04,VWS V15.00,2014-08-22 12:09:00,
2014-08-22 08:14:00,72.7,72.7,29.83,NW,316,0.0,0.0,100,0.00,,---,0.04,VWS V15.00,2014-08-22 12:14:00,
2014-08-22 08:19:00,72.9,72.9,29.83,NW,316,0.0,0.0,100,0.00,,---,0.04,VWS V15.00,2014-08-22 12:19:00,
2014-08-22 08:24:00,73.2,73.2,29.83,NW,316,0.0,0.0,100,0.00,,---,0.04,VWS V15.00,2014-08-22 12:24:00,
2014-08-22 08:29:00,73.4,73.4,29.83,NW,316,0.0,0.0,100,0.00,,---,0.04,VWS V15.00,2014-08-22 12:29:00,
2014-08-22 08:34:00,73.6,73.6,29.83,NW,316,0.0,0.0,100,0.00,,---,0.04,VWS V15.00,2014-08-22 12:34:00,
2014-08-22 08:39:00,73.8,73.8,29.83,NW,316,0.0,0.0,100,0.00,,---,0.04,VWS V15.00,2014-08-22 12:39:00,
2014-08-22 08:44:00,74.1,73.8,29.83,NW,316,0.0,0.0,99,0.00,,---,0.04,VWS V15.00,2014-08-22 12:44:00,
2014-08-22 08:49:00,74.3,73.1,29.85,NW,316,0.0,0.0,96,0.00,,---,0.04,VWS V15.00,2014-08-22 12:49:00,
2014-08-22 08:54:00,74.3,72.8,29.85,NW,316,0.0,0.0,95,0.00,,---,0.04,VWS V15.00,2014-08-22 12:54:00,
2014-08-22 08:59:00,74.3,72.2,29.85,NW,316,0.0,0.0,93,0.00,,---,0.04,VWS V15.00,2014-08-22 12:59:00,
2014-08-22 09:04:00,74.7,71.5,29.85,NW,316,0.0,0.0,90,0.00,,---,0.04,VWS V15.00,2014-08-22 13:04:00,
2014-08-22 09:09:00,74.8,69.7,29.85,NW,316,0.0,0.0,84,0.00,,---,0.04,VWS V15.00,2014-08-22 13:09:00,
2014-08-22 09:14:00,75.0,68.1,29.85,NW,316,0.0,0.0,79,0.00,,---,0.04,VWS V15.00,2014-08-22 13:14:00,
2014-08-22 09:19:00,75.2,65.6,29.85,NW,316,0.0,0.0,72,0.00,,---,0.04,VWS V15.00,2014-08-22 13:19:00,
2014-08-22 09:24:00,75.2,62.2,29.85,NW,316,0.0,0.0,64,0.00,,---,0.04,VWS V15.00,2014-08-22 13:24:00,
2014-08-22 09:29:00,75.2,64.8,29.85,NW,316,0.0,0.0,70,0.00,,---,0.04,VWS V15.00,2014-08-22 13:29:00,
2014-08-22 09:34:00,75.6,63.4,29.85,NW,316,0.0,0.0,66,0.00,,---,0.04,VWS V15.00,2014-08-22 13:34:00,
2014-08-22 09:39:00,75.9,62.9,29.85,NW,315,0.0,0.0,64,0.00,,---,0.00,VWS V15.00,2014-08-22 13:39:00,
2014-08-22 09:44:00,75.9,61.0,29.85,NW,316,0.0,0.0,60,0.00,,---,0.04,VWS V15.00,2014-08-22 13:44:00,
2014-08-22 09:49:00,75.9,61.0,29.85,NW,316,0.0,0.0,60,0.00,,---,0.04,VWS V15.00,2014-08-22 13:49:00,
2014-08-22 09:54:00,76.1,61.7,29.85,NW,316,0.0,0.0,61,0.00,,---,0.04,VWS V15.00,2014-08-22 13:54:00,
2014-08-22 09:59:00,76.5,61.6,29.85,NW,316,0.0,0.0,60,0.00,,---,0.04,VWS V15.00,2014-08-22 13:59:00,
2014-08-22 10:04:00,76.5,61.1,29.85,NW,316,0.0,0.0,59,0.00,,---,0.04,VWS V15.00,2014-08-22 14:04:00,
2014-08-22 10:09:00,76.6,60.3,29.85,NW,316,0.0,0.0,57,0.00,,---,0.04,VWS V15.00,2014-08-22 14:09:00,
2014-08-22 10:14:00,77.0,60.1,29.85,NW,316,0.0,0.0,56,0.00,,---,0.04,VWS V15.00,2014-08-22 14:14:00,
2014-08-22 10:19:00,77.0,59.6,29.85,NW,316,0.0,0.0,55,0.00,,---,0.04,VWS V15.00,2014-08-22 14:19:00,
2014-08-22 10:24:00,77.0,58.6,29.85,NW,316,0.0,0.0,53,0.00,,---,0.04,VWS V15.00,2014-08-22 14:24:00,
2014-08-22 10:29:00,77.0,59.6,29.85,NW,316,0.0,0.0,55,0.00,,---,0.04,VWS V15.00,2014-08-22 14:29:00,